Location: Hurecourt
(47.9030°N, 6.0653°E)
Time: 20:36:10
(UTC+00:00)

Meteor 2-4 Rocket - Pass Details

Date: 14 July 2020
Orbit: 799 x 908 km, 81.2° (Epoch: 14 August)

Event Time Altitude Azimuth Distance (km) Brightness Sun altitude
Rises 01:56:17 0° 343° (NNW) 3,550 7.6 -14.2°
Reaches altitude 10° 01:58:52 10° 337° (NNW) 2,603 6.7 -14.0°
Maximum altitude 02:04:26 43° 268° (W) 1,243 4.3 -13.5°
Enters shadow 02:08:30 18° 205° (SSW) 2,072 5.1 -13.1°
